{"data":{"norad_id":48044,"epoch":"2026-05-25T00:13:19.996608Z","epoch_age_seconds":88307,"freshness":"FRESH","line1":"1 48044U 21025C   26145.00925922  .00000070  00000+0  15548-3 0  9999","line2":"2 48044  87.8940 324.8409 0001774  94.3661 265.7671 13.13469352250509","mean_motion":13.13469352,"eccentricity":0.0001774,"inclination_deg":87.894,"raan_deg":324.8409,"arg_perigee_deg":94.3661,"mean_anomaly_deg":265.7671,"bstar":0.00015548,"rev_number":25050,"period_min":109.63331560096,"perigee_km":1208.4218012323,"apogee_km":1211.1139898892,"semimajor_km":7587.9048955608,"source":"CELESTRAK","updated_at":"2026-05-25T13:38:22.387797Z"}}